| time (UTC) | temp C | wind direction | speed KPH | gust KPH | rain 1hr cm | rain 24hr cm | rain mn cm | humidity % | barometer mb |
| 20260507122803 | 13 | 32 | 0.0 | 1.6 | 0.00 | 0.00 | 0.03 | 86 | 1007.8 |
| 20260507122257 | 13 | 29 | 0.0 | 1.6 | 0.00 | 0.00 | 0.03 | 86 | 1007.8 |
| 20260507121751 | 13 | 29 | 0.0 | 6.4 | 0.00 | 0.00 | 0.03 | 85 | 1007.7 |
| 20260507121245 | 13 | 37 | 0.0 | 6.4 | 0.00 | 0.00 | 0.03 | 85 | 1007.6 |
| 20260507120739 | 13 | 27 | 0.0 | 4.8 | 0.00 | 0.00 | 0.03 | 85 | 1007.4 |
| 20260507120233 | 13 | 27 | 0.0 | 4.8 | 0.00 | 0.00 | 0.03 | 85 | 1007.5 |
| 20260507115729 | 13 | 27 | 0.0 | 3.2 | 0.00 | 0.00 | 0.03 | 85 | 1007.7 |
| 20260507115221 | 13 | 38 | 0.0 | 3.2 | 0.00 | 0.00 | 0.03 | 84 | 1007.7 |
| 20260507114939 | 13 | 20 | 0.0 | 4.8 | 0.00 | 0.00 | 0.03 | 84 | 1007.9 |
| 20260507114209 | 13 | 19 | 1.6 | 4.8 | 0.00 | 0.00 | 0.03 | 84 | 1007.7 |
| 20260507113703 | 13 | 27 | 0.0 | 4.8 | 0.00 | 0.00 | 0.03 | 83 | 1007.7 |
| 20260507113157 | 13 | 25 | 0.0 | 4.8 | 0.00 | 0.00 | 0.03 | 83 | 1007.7 |
| 20260507112651 | 13 | 32 | 0.0 | 4.8 | 0.00 | 0.00 | 0.03 | 83 | 1007.5 |
| 20260507112145 | 13 | 34 | 0.0 | 1.6 | 0.00 | 0.00 | 0.03 | 83 | 1007.3 |
| 20260507111639 | 13 | 29 | 0.0 | 1.6 | 0.00 | 0.00 | 0.03 | 83 | 1007.2 |
| 20260507111134 | 13 | 29 | 1.6 | 6.4 | 0.00 | 0.00 | 0.03 | 83 | 1007.2 |
| 20260507110627 | 13 | 28 | 1.6 | 6.4 | 0.00 | 0.00 | 0.03 | 82 | 1007.4 |
| 20260507110121 | 13 | 24 | 0.0 | 3.2 | 0.00 | 0.00 | 0.03 | 83 | 1007.4 |
| 20260507105618 | 13 | 33 | 0.0 | 3.2 | 0.00 | 0.00 | 0.03 | 83 | 1007.4 |
| 20260507105109 | 13 | 33 | 0.0 | 3.2 | 0.00 | 0.00 | 0.03 | 83 | 1007.1 |
| 20260507104603 | 13 | 32 | 0.0 | 3.2 | 0.00 | 0.00 | 0.03 | 83 | 1007.0 |
| 20260507104057 | 13 | 32 | 0.0 | 3.2 | 0.00 | 0.00 | 0.03 | 83 | 1007.0 |
| 20260507103812 | 13 | 30 | 0.0 | 1.6 | 0.00 | 0.00 | 0.03 | 83 | 1006.9 |
| 20260507103045 | 13 | 30 | 0.0 | 1.6 | 0.00 | 0.00 | 0.03 | 84 | 1006.9 |
| 20260507102800 | 13 | 30 | 0.0 | 1.6 | 0.00 | 0.00 | 0.03 | 84 | 1006.8 |
| 20260507102040 | 13 | 30 | 0.0 | 1.6 | 0.00 | 0.00 | 0.03 | 85 | 1006.6 |
| 20260507101541 | 13 | 30 | 0.0 | 1.6 | 0.00 | 0.00 | 0.03 | 85 | 1006.4 |
| 20260507101037 | 13 | 30 | 0.0 | 4.8 | 0.00 | 0.00 | 0.03 | 84 | 1006.5 |
| 20260507100536 | 13 | 30 | 1.6 | 4.8 | 0.00 | 0.00 | 0.03 | 84 | 1006.8 |
| 20260507100300 | 13 | 32 | 1.6 | 4.8 | 0.00 | 0.00 | 0.03 | 85 | 1006.9 |
| 20260507095536 | 13 | 30 | 1.6 | 4.8 | 0.00 | 0.00 | 0.03 | 86 | 1007.0 |
| 20260507095036 | 13 | 30 | 0.0 | 4.8 | 0.00 | 0.00 | 0.03 | 88 | 1007.1 |
| 20260507094538 | 13 | 30 | 0.0 | 4.8 | 0.00 | 0.00 | 0.03 | 88 | 1006.9 |
| 20260507094039 | 14 | 32 | 0.0 | 3.2 | 0.00 | 0.00 | 0.03 | 89 | 1007.0 |
| 20260507093540 | 14 | 32 | 0.0 | 3.2 | 0.00 | 0.00 | 0.03 | 88 | 1007.1 |
| 20260507093039 | 14 | 28 | 1.6 | 1.6 | 0.00 | 0.00 | 0.03 | 89 | 1007.1 |
| 20260507092534 | 14 | 33 | 0.0 | 0.0 | 0.00 | 0.00 | 0.03 | 89 | 1006.8 |
| 20260507092223 | 14 | 30 | 0.0 | 6.4 | 0.03 | 0.28 | 0.03 | 89 | 1006.9 |
| 20260507091724 | 14 | 33 | 0.0 | 1.6 | 0.03 | 0.28 | 0.03 | 90 | 1006.8 |
| 20260507091225 | 14 | 32 | 1.6 | 3.2 | 0.03 | 0.28 | 0.03 | 89 | 1006.8 |
| 20260507090725 | 14 | 22 | 1.6 | 4.8 | 0.03 | 0.28 | 0.03 | 89 | 1006.7 |
| 20260507090225 | 14 | 18 | 0.0 | 4.8 | 0.03 | 0.28 | 0.03 | 89 | 1006.8 |
| 20260507085725 | 15 | 28 | 1.6 | 4.8 | 0.03 | 0.28 | 0.03 | 88 | 1006.7 |
| 20260507085223 | 15 | 28 | 1.6 | 4.8 | 0.03 | 0.28 | 0.03 | 88 | 1006.8 |
| 20260507084723 | 15 | 27 | 0.0 | 4.8 | 0.03 | 0.28 | 0.03 | 88 | 1006.8 |
| 20260507084225 | 15 | 217 | 0.0 | 1.6 | 0.03 | 0.28 | 0.03 | 88 | 1006.5 |
| 20260507083724 | 15 | 209 | 0.0 | 3.2 | 0.00 | 0.25 | 0.00 | 87 | 1006.7 |
| 20260507083224 | 15 | 31 | 1.6 | 9.7 | 0.00 | 0.25 | 0.00 | 87 | 1006.5 |
| 20260507082724 | 15 | 32 | 3.2 | 9.7 | 0.00 | 0.25 | 0.00 | 86 | 1006.3 |
| 20260507082223 | 15 | 33 | 3.2 | 8.0 | 0.00 | 0.25 | 0.00 | 85 | 1006.5 |
| 20260507081723 | 16 | 30 | 3.2 | 8.0 | 0.00 | 0.25 | 0.00 | 85 | 1006.5 |
| 20260507081224 | 16 | 34 | 1.6 | 6.4 | 0.00 | 0.25 | 0.00 | 86 | 1006.6 |
| 20260507080725 | 16 | 338 | 1.6 | 6.4 | 0.00 | 0.25 | 0.00 | 86 | 1006.3 |
| 20260507080222 | 17 | 32 | 1.6 | 8.0 | 0.00 | 0.25 | 0.00 | 85 | 1006.2 |
| 20260507075722 | 18 | 23 | 1.6 | 8.0 | 0.00 | 0.25 | 0.00 | 87 | 1005.9 |
| 20260507075223 | 18 | 25 | 1.6 | 6.4 | 0.00 | 0.25 | 0.00 | 89 | 1005.7 |
| 20260507074721 | 18 | 25 | 0.0 | 6.4 | 0.00 | 0.25 | 0.00 | 90 | 1005.4 |
| 20260507074221 | 19 | 65 | 0.0 | 0.0 | 0.00 | 0.25 | 0.00 | 90 | 1005.5 |
| 20260507073945 | 19 | 152 | 0.0 | 0.0 | 0.00 | 0.25 | 0.00 | 90 | 1005.6 |
| 20260507073224 | 19 | 153 | 0.0 | 0.0 | 0.00 | 0.25 | 0.00 | 89 | 1005.6 |
| 20260507072720 | 19 | 152 | 0.0 | 0.0 | 0.00 | 0.25 | 0.00 | 89 | 1005.4 |
| 20260507072219 | 19 | 153 | 0.0 | 0.0 | 0.00 | 0.25 | 0.00 | 88 | 1005.5 |
| 20260507071717 | 20 | 153 | 0.0 | 0.0 | 0.00 | 0.25 | 0.00 | 88 | 1005.6 |
| 20260507071219 | 20 | 153 | 0.0 | 0.0 | 0.00 | 0.25 | 0.00 | 87 | 1005.6 |
| 20260507070718 | 20 | 152 | 0.0 | 0.0 | 0.00 | 0.25 | 0.00 | 87 | 1005.7 |
| 20260507070218 | 20 | 29 | 0.0 | 0.0 | 0.00 | 0.25 | 0.00 | 86 | 1005.6 |
| 20260507065717 | 20 | 29 | 0.0 | 1.6 | 0.00 | 0.25 | 0.00 | 86 | 1005.4 |
| 20260507065216 | 20 | 29 | 0.0 | 6.4 | 0.00 | 0.25 | 0.00 | 85 | 1005.0 |
| 20260507064715 | 20 | 224 | 0.0 | 6.4 | 0.00 | 0.25 | 0.00 | 85 | 1005.1 |
| 20260507064214 | 20 | 197 | 0.0 | 1.6 | 0.00 | 0.25 | 0.00 | 85 | 1004.9 |
| 20260507063714 | 20 | 223 | 0.0 | 1.6 | 0.00 | 0.25 | 0.00 | 85 | 1004.9 |
| 20260507063428 | 20 | 214 | 0.0 | 3.2 | 0.00 | 0.25 | 0.00 | 84 | 1004.8 |
| 20260507062709 | 20 | 221 | 0.0 | 4.8 | 0.00 | 0.25 | 0.00 | 84 | 1004.7 |
| 20260507062211 | 20 | 174 | 0.0 | 8.0 | 0.00 | 0.25 | 0.00 | 84 | 1004.5 |
| 20260507061927 | 20 | 6 | 0.0 | 8.0 | 0.00 | 0.25 | 0.00 | 84 | 1004.4 |
| 20260507061204 | 20 | 359 | 0.0 | 1.6 | 0.00 | 0.25 | 0.00 | 84 | 1004.4 |
| 20260507060657 | 20 | 31 | 0.0 | 6.4 | 0.00 | 0.25 | 0.00 | 84 | 1004.3 |
| 20260507060152 | 20 | 230 | 0.0 | 6.4 | 0.00 | 0.25 | 0.00 | 84 | 1004.4 |
| 20260507055646 | 20 | 259 | 0.0 | 3.2 | 0.00 | 0.25 | 0.00 | 84 | 1004.5 |
| 20260507055139 | 20 | 135 | 0.0 | 3.2 | 0.00 | 0.25 | 0.00 | 84 | 1004.6 |
| 20260507054634 | 20 | 231 | 0.0 | 1.6 | 0.00 | 0.25 | 0.00 | 84 | 1004.7 |
| 20260507054128 | 20 | 220 | 0.0 | 3.2 | 0.00 | 0.25 | 0.00 | 84 | 1004.4 |
| 20260507053623 | 20 | 285 | 0.0 | 3.2 | 0.00 | 0.25 | 0.00 | 84 | 1004.5 |
| 20260507053116 | 20 | 285 | 0.0 | 1.6 | 0.00 | 0.25 | 0.00 | 84 | 1004.6 |
| 20260507052609 | 20 | 285 | 0.0 | 3.2 | 0.00 | 0.25 | 0.00 | 84 | 1004.7 |
| 20260507052324 | 20 | 8 | 0.0 | 3.2 | 0.00 | 0.25 | 0.00 | 84 | 1004.8 |
| 20260507051558 | 20 | 63 | 0.0 | 6.4 | 0.00 | 0.25 | 0.00 | 84 | 1005.1 |
| 20260507051052 | 20 | 347 | 0.0 | 6.4 | 0.00 | 0.25 | 0.00 | 84 | 1005.3 |
| 20260507050546 | 20 | 300 | 0.0 | 6.4 | 0.00 | 0.25 | 0.00 | 84 | 1005.4 |
| 20260507050040 | 20 | 255 | 0.0 | 4.8 | 0.00 | 0.25 | 0.00 | 84 | 1005.5 |
| 20260507050023 | 20 | 155 | 0.0 | 6.4 | 0.00 | 0.25 | 0.00 | 84 | 1005.6 |
| 20260507045028 | 20 | 37 | 1.6 | 6.4 | 0.00 | 0.25 | 0.00 | 84 | 1005.7 |
| 20260507044522 | 20 | 77 | 0.0 | 4.8 | 0.00 | 0.25 | 0.00 | 84 | 1005.7 |
| 20260507044016 | 20 | 218 | 0.0 | 3.2 | 0.00 | 0.25 | 0.00 | 83 | 1005.7 |
| 20260507043510 | 21 | 288 | 0.0 | 4.8 | 0.00 | 0.25 | 0.00 | 83 | 1005.8 |
| 20260507043004 | 21 | 212 | 1.6 | 4.8 | 0.00 | 0.25 | 0.00 | 83 | 1006.0 |
| 20260507042458 | 21 | 38 | 1.6 | 11.3 | 0.00 | 0.25 | 0.00 | 83 | 1006.1 |
| 20260507042446 | 20 | 211 | 1.6 | 11.3 | 0.00 | 0.25 | 0.00 | 83 | 1005.8 |
| 20260507041446 | 20 | 233 | 0.0 | 4.8 | 0.00 | 0.25 | 0.00 | 83 | 1005.7 |
| 20260507040940 | 21 | 183 | 0.0 | 3.2 | 0.00 | 0.25 | 0.00 | 83 | 1005.4 |
| 20260507040438 | 21 | 171 | 0.0 | 3.2 | 0.00 | 0.25 | 0.00 | 83 | 1005.5 |
| 20260507035937 | 21 | 48 | 0.0 | 6.4 | 0.00 | 0.25 | 0.25 | 83 | 1005.6 |
| 20260507035436 | 21 | 356 | 1.6 | 6.4 | 0.00 | 0.25 | 0.25 | 83 | 1005.7 |
| 20260507034936 | 20 | 210 | 1.6 | 8.0 | 0.00 | 0.25 | 0.25 | 83 | 1005.8 |
| 20260507034437 | 20 | 221 | 0.0 | 8.0 | 0.00 | 0.25 | 0.25 | 84 | 1006.0 |
| 20260507033936 | 20 | 117 | 1.6 | 4.8 | 0.00 | 0.25 | 0.25 | 84 | 1006.0 |
| 20260507033436 | 20 | 203 | 1.6 | 9.7 | 0.00 | 0.25 | 0.25 | 84 | 1005.8 |
| 20260507032936 | 20 | 150 | 1.6 | 9.7 | 0.00 | 0.25 | 0.25 | 84 | 1005.8 |
| 20260507032436 | 20 | 228 | 0.0 | 4.8 | 0.00 | 0.25 | 0.25 | 85 | 1005.7 |
| 20260507031937 | 20 | 200 | 0.0 | 4.8 | 0.00 | 0.25 | 0.25 | 85 | 1005.6 |
| 20260507031435 | 20 | 195 | 0.0 | 4.8 | 0.00 | 0.25 | 0.25 | 86 | 1005.4 |
| 20260507030935 | 20 | 150 | 0.0 | 6.4 | 0.00 | 0.25 | 0.25 | 86 | 1005.6 |
| 20260507030434 | 20 | 150 | 0.0 | 6.4 | 0.00 | 0.25 | 0.25 | 86 | 1005.5 |
| 20260507025935 | 20 | 344 | 0.0 | 1.6 | 0.00 | 0.25 | 0.25 | 86 | 1005.4 |
| 20260507025434 | 20 | 344 | 0.0 | 1.6 | 0.00 | 0.25 | 0.25 | 86 | 1005.4 |
| 20260507024934 | 20 | 347 | 0.0 | 1.6 | 0.00 | 0.25 | 0.25 | 86 | 1005.4 |
| 20260507024649 | 20 | 347 | 0.0 | 1.6 | 0.00 | 0.25 | 0.25 | 85 | 1005.3 |
| 20260507024136 | 20 | 18 | 0.0 | 0.0 | 0.00 | 0.25 | 0.25 | 85 | 1005.5 |
| 20260507024025 | 20 | 348 | 0.0 | 0.0 | 0.00 | 0.25 | 0.25 | 85 | 1005.3 |
| 20260507023148 | 20 | 22 | 0.0 | 1.6 | 0.00 | 0.25 | 0.25 | 85 | 1005.4 |
| 20260507022429 | 20 | 24 | 0.0 | 1.6 | 0.00 | 0.25 | 0.25 | 85 | 1005.6 |
| 20260507021929 | 20 | 9 | 0.0 | 1.6 | 0.00 | 0.25 | 0.25 | 85 | 1005.6 |
| 20260507021430 | 20 | 354 | 0.0 | 1.6 | 0.00 | 0.25 | 0.25 | 85 | 1005.8 |
| 20260507020924 | 20 | 354 | 0.0 | 3.2 | 0.00 | 0.25 | 0.25 | 85 | 1005.8 |
| 20260507020419 | 20 | 354 | 0.0 | 3.2 | 0.00 | 0.25 | 0.25 | 85 | 1005.8 |
| 20260507015912 | 20 | 25 | 0.0 | 1.6 | 0.00 | 0.25 | 0.25 | 85 | 1005.9 |
| 20260507015406 | 20 | 25 | 0.0 | 1.6 | 0.00 | 0.25 | 0.25 | 85 | 1005.9 |
| 20260507014900 | 20 | 21 | 0.0 | 1.6 | 0.00 | 0.25 | 0.25 | 85 | 1005.9 |
| 20260507014353 | 20 | 27 | 0.0 | 1.6 | 0.00 | 0.25 | 0.25 | 85 | 1005.9 |
| 20260507014113 | 20 | 30 | 0.0 | 1.6 | 0.00 | 0.25 | 0.25 | 85 | 1005.8 |
| 20260507013341 | 20 | 4 | 0.0 | 3.2 | 0.00 | 0.25 | 0.25 | 85 | 1005.9 |
| 20260507012835 | 20 | 11 | 0.0 | 3.2 | 0.00 | 0.25 | 0.25 | 85 | 1005.9 |
| 20260507012550 | 20 | 66 | 0.0 | 1.6 | 0.00 | 0.25 | 0.25 | 85 | 1006.0 |
| 20260507011824 | 20 | 61 | 0.0 | 0.0 | 0.00 | 0.25 | 0.25 | 84 | 1005.9 |
| 20260507011547 | 20 | 316 | 0.0 | 0.0 | 0.00 | 0.25 | 0.25 | 84 | 1005.9 |
| 20260507010812 | 20 | 316 | 0.0 | 0.0 | 0.00 | 0.25 | 0.25 | 84 | 1005.8 |
| 20260507010527 | 20 | 316 | 0.0 | 0.0 | 0.00 | 0.25 | 0.25 | 83 | 1005.6 |
| 20260507005800 | 20 | 316 | 0.0 | 0.0 | 0.00 | 0.25 | 0.25 | 83 | 1005.4 |
| 20260507005254 | 20 | 316 | 0.0 | 8.0 | 0.00 | 0.25 | 0.25 | 83 | 1005.4 |
| 20260507004748 | 20 | 316 | 0.0 | 8.0 | 0.00 | 0.25 | 0.25 | 83 | 1005.7 |
| 20260507004242 | 20 | 230 | 0.0 | 1.6 | 0.00 | 0.25 | 0.25 | 82 | 1005.7 |
| 20260507003736 | 20 | 230 | 0.0 | 1.6 | 0.00 | 0.25 | 0.25 | 82 | 1005.8 |
| 20260507003230 | 20 | 230 | 0.0 | 1.6 | 0.00 | 0.25 | 0.25 | 82 | 1005.9 |
| 20260507002724 | 20 | 75 | 0.0 | 3.2 | 0.00 | 0.25 | 0.25 | 81 | 1005.9 |
| 20260507002217 | 21 | 148 | 0.0 | 4.8 | 0.00 | 0.25 | 0.25 | 81 | 1005.8 |
| 20260507001712 | 21 | 29 | 0.0 | 4.8 | 0.00 | 0.25 | 0.25 | 81 | 1005.8 |
| 20260507001207 | 21 | 221 | 0.0 | 4.8 | 0.00 | 0.25 | 0.25 | 81 | 1005.9 |
| 20260507000700 | 21 | 230 | 0.0 | 1.6 | 0.00 | 0.25 | 0.25 | 80 | 1005.9 |
| 20260507000155 | 21 | 131 | 0.0 | 1.6 | 0.00 | 0.25 | 0.25 | 80 | 1005.8 |
| 20260506235649 | 21 | 190 | 0.0 | 0.0 | 0.00 | 0.25 | 0.25 | 80 | 1005.8 |
| 20260506235406 | 21 | 148 | 0.0 | 6.4 | 0.00 | 0.25 | 0.25 | 79 | 1005.6 |
| 20260506234905 | 21 | 153 | 0.0 | 6.4 | 0.00 | 0.25 | 0.25 | 79 | 1005.6 |
| 20260506234130 | 21 | 221 | 0.0 | 4.8 | 0.00 | 0.25 | 0.25 | 78 | 1005.6 |
| 20260506233624 | 21 | 234 | 0.0 | 4.8 | 0.00 | 0.25 | 0.25 | 78 | 1005.5 |
| 20260506233118 | 21 | 226 | 0.0 | 4.8 | 0.00 | 0.25 | 0.25 | 78 | 1005.4 |
| 20260506232831 | 21 | 258 | 0.0 | 4.8 | 0.00 | 0.25 | 0.25 | 77 | 1005.5 |
| 20260506232106 | 21 | 193 | 0.0 | 1.6 | 0.00 | 0.25 | 0.25 | 77 | 1005.5 |
| 20260506231600 | 22 | 208 | 0.0 | 3.2 | 0.00 | 0.25 | 0.25 | 77 | 1005.5 |
| 20260506231054 | 22 | 196 | 0.0 | 3.2 | 0.00 | 0.25 | 0.25 | 77 | 1005.4 |
| 20260506230819 | 22 | 117 | 0.0 | 3.2 | 0.00 | 0.25 | 0.25 | 76 | 1005.3 |
| 20260506230042 | 22 | 166 | 0.0 | 4.8 | 0.00 | 0.25 | 0.25 | 76 | 1005.5 |
| 20260506225537 | 22 | 3 | 0.0 | 4.8 | 0.00 | 0.25 | 0.25 | 76 | 1005.5 |
| 20260506225030 | 21 | 284 | 0.0 | 4.8 | 0.00 | 0.25 | 0.25 | 76 | 1005.5 |
| 20260506224524 | 21 | 8 | 0.0 | 4.8 | 0.00 | 0.25 | 0.25 | 76 | 1005.6 |
| 20260506224240 | 21 | 184 | 1.6 | 6.4 | 0.00 | 0.25 | 0.25 | 76 | 1005.6 |
| 20260506223512 | 21 | 4 | 1.6 | 6.4 | 0.00 | 0.25 | 0.25 | 75 | 1005.5 |
| 20260506223005 | 21 | 217 | 0.0 | 8.0 | 0.00 | 0.25 | 0.25 | 76 | 1005.5 |
| 20260506222500 | 22 | 226 | 0.0 | 8.0 | 0.00 | 0.25 | 0.25 | 75 | 1005.5 |
| 20260506221954 | 22 | 240 | 0.0 | 1.6 | 0.00 | 0.25 | 0.25 | 75 | 1005.6 |
| 20260506221448 | 22 | 231 | 0.0 | 6.4 | 0.00 | 0.25 | 0.25 | 75 | 1005.5 |
| 20260506220942 | 22 | 125 | 1.6 | 6.4 | 0.00 | 0.25 | 0.25 | 74 | 1005.6 |
| 20260506220435 | 22 | 195 | 0.0 | 4.8 | 0.00 | 0.25 | 0.25 | 75 | 1005.4 |
| 20260506215928 | 22 | 259 | 0.0 | 3.2 | 0.00 | 0.25 | 0.25 | 74 | 1005.6 |
| 20260506215647 | 22 | 31 | 0.0 | 4.8 | 0.00 | 0.25 | 0.25 | 74 | 1005.6 |
| 20260506214916 | 22 | 227 | 0.0 | 4.8 | 0.00 | 0.25 | 0.25 | 74 | 1005.6 |
| 20260506214409 | 22 | 231 | 1.6 | 9.7 | 0.00 | 0.25 | 0.25 | 75 | 1005.6 |
| 20260506214135 | 22 | 162 | 1.6 | 9.7 | 0.00 | 0.25 | 0.25 | 75 | 1005.4 |
| 20260506213358 | 22 | 73 | 1.6 | 8.0 | 0.00 | 0.25 | 0.25 | 74 | 1005.7 |
| 20260506213112 | 22 | 270 | 1.6 | 8.0 | 0.00 | 0.25 | 0.25 | 75 | 1005.6 |
| 20260506212346 | 22 | 78 | 0.0 | 6.4 | 0.00 | 0.25 | 0.25 | 75 | 1005.6 |
| 20260506211840 | 22 | 198 | 0.0 | 4.8 | 0.00 | 0.25 | 0.25 | 75 | 1005.7 |
| 20260506211334 | 22 | 20 | 1.6 | 4.8 | 0.00 | 0.25 | 0.25 | 75 | 1005.6 |
| 20260506210832 | 22 | 91 | 1.6 | 6.4 | 0.00 | 0.25 | 0.25 | 76 | 1005.5 |
| 20260506210331 | 22 | 333 | 1.6 | 6.4 | 0.00 | 0.25 | 0.25 | 77 | 1005.5 |
| 20260506205831 | 22 | 292 | 1.6 | 9.7 | 0.00 | 0.25 | 0.25 | 76 | 1005.5 |
| 20260506205331 | 22 | 39 | 1.6 | 9.7 | 0.00 | 0.25 | 0.25 | 77 | 1005.6 |
| 20260506204831 | 22 | 156 | 0.0 | 3.2 | 0.00 | 0.25 | 0.25 | 79 | 1005.6 |
| 20260506204817 | 22 | 221 | 0.0 | 4.8 | 0.00 | 0.25 | 0.25 | 80 | 1005.8 |
| 20260506203830 | 21 | 34 | 0.0 | 4.8 | 0.00 | 0.25 | 0.25 | 81 | 1005.6 |
| 20260506203550 | 21 | 114 | 0.0 | 3.2 | 0.00 | 0.25 | 0.25 | 81 | 1005.3 |
| 20260506202825 | 21 | 67 | 0.0 | 3.2 | 0.00 | 0.25 | 0.25 | 81 | 1005.5 |
| 20260506202325 | 21 | 195 | 0.0 | 3.2 | 0.00 | 0.25 | 0.25 | 82 | 1005.7 |
| 20260506201826 | 21 | 197 | 0.0 | 6.4 | 0.00 | 0.25 | 0.25 | 81 | 1005.7 |
| 20260506201326 | 21 | 185 | 0.0 | 6.4 | 0.00 | 0.25 | 0.25 | 81 | 1005.8 |
| 20260506200826 | 20 | 188 | 0.0 | 4.8 | 0.00 | 0.25 | 0.25 | 82 | 1005.8 |
| 20260506200325 | 20 | 220 | 0.0 | 4.8 | 0.00 | 0.25 | 0.25 | 82 | 1005.8 |
| 20260506200318 | 20 | 175 | 0.0 | 4.8 | 0.00 | 0.25 | 0.25 | 82 | 1005.8 |
| 20260506195326 | 20 | 26 | 0.0 | 8.0 | 0.00 | 0.25 | 0.25 | 82 | 1005.3 |
| 20260506194819 | 20 | 226 | 0.0 | 8.0 | 0.00 | 0.25 | 0.25 | 83 | 1005.4 |
| 20260506194319 | 20 | 343 | 0.0 | 3.2 | 0.00 | 0.25 | 0.25 | 83 | 1005.1 |
| 20260506193819 | 20 | 342 | 0.0 | 3.2 | 0.00 | 0.25 | 0.25 | 83 | 1005.2 |
| 20260506193319 | 20 | 30 | 0.0 | 4.8 | 0.00 | 0.25 | 0.25 | 84 | 1005.2 |
| 20260506193314 | 20 | 22 | 0.0 | 4.8 | 0.00 | 0.25 | 0.25 | 84 | 1005.2 |
| 20260506192320 | 20 | 34 | 0.0 | 3.2 | 0.00 | 0.25 | 0.25 | 85 | 1005.5 |
| 20260506191819 | 19 | 200 | 0.0 | 1.6 | 0.00 | 0.25 | 0.25 | 85 | 1005.6 |
| 20260506191317 | 19 | 117 | 0.0 | 3.2 | 0.00 | 0.25 | 0.25 | 85 | 1005.8 |
| 20260506191046 | 19 | 149 | 0.0 | 4.8 | 0.00 | 0.25 | 0.25 | 86 | 1006.0 |
| 20260506190317 | 19 | 217 | 1.6 | 6.4 | 0.00 | 0.25 | 0.25 | 86 | 1006.0 |
| 20260506185818 | 19 | 211 | 0.0 | 6.4 | 0.00 | 0.25 | 0.25 | 86 | 1006.3 |
| 20260506185756 | 19 | 79 | 0.0 | 3.2 | 0.00 | 0.25 | 0.25 | 87 | 1006.2 |
| 20260506184818 | 18 | 288 | 0.0 | 3.2 | 0.00 | 0.25 | 0.25 | 86 | 1006.2 |
| 20260506184316 | 19 | 161 | 0.0 | 3.2 | 0.00 | 0.25 | 0.25 | 86 | 1006.1 |
| 20260506184038 | 19 | 167 | 0.0 | 6.4 | 0.00 | 0.25 | 0.25 | 86 | 1006.3 |
| 20260506183317 | 19 | 12 | 0.0 | 6.4 | 0.00 | 0.25 | 0.25 | 85 | 1006.4 |
| 20260506182816 | 19 | 162 | 0.0 | 6.4 | 0.00 | 0.25 | 0.25 | 85 | 1006.4 |
| 20260506182318 | 19 | 160 | 0.0 | 8.0 | 0.00 | 0.25 | 0.25 | 84 | 1006.4 |
| 20260506182037 | 19 | 176 | 1.6 | 8.0 | 0.00 | 0.25 | 0.25 | 84 | 1006.6 |
| 20260506181318 | 19 | 223 | 1.6 | 4.8 | 0.00 | 0.25 | 0.25 | 85 | 1006.9 |
| 20260506181038 | 19 | 302 | 0.0 | 4.8 | 0.00 | 0.25 | 0.25 | 85 | 1007.0 |
| 20260506180318 | 19 | 34 | 0.0 | 4.8 | 0.00 | 0.25 | 0.25 | 85 | 1006.9 |
| 20260506175817 | 19 | 229 | 0.0 | 6.4 | 0.00 | 0.25 | 0.25 | 85 | 1006.9 |
| 20260506175317 | 19 | 212 | 0.0 | 6.4 | 0.00 | 0.25 | 0.25 | 86 | 1007.1 |
| 20260506174818 | 19 | 172 | 0.0 | 11.3 | 0.00 | 0.25 | 0.25 | 86 | 1006.9 |
| 20260506174318 | 19 | 214 | 0.0 | 11.3 | 0.00 | 0.25 | 0.25 | 87 | 1006.9 |
| 20260506173816 | 19 | 214 | 0.0 | 6.4 | 0.00 | 0.25 | 0.25 | 87 | 1006.9 |
| 20260506173316 | 18 | 172 | 0.0 | 3.2 | 0.00 | 0.25 | 0.25 | 88 | 1006.8 |
| 20260506173038 | 18 | 61 | 0.0 | 1.6 | 0.00 | 0.25 | 0.25 | 89 | 1006.8 |
| 20260506172318 | 18 | 219 | 0.0 | 3.2 | 0.00 | 0.25 | 0.25 | 89 | 1006.9 |
| 20260506171817 | 18 | 158 | 0.0 | 3.2 | 0.00 | 0.25 | 0.25 | 88 | 1006.7 |
| 20260506171316 | 18 | 214 | 0.0 | 3.2 | 0.00 | 0.25 | 0.25 | 88 | 1006.7 |
| 20260506170816 | 18 | 192 | 0.0 | 3.2 | 0.03 | 0.25 | 0.25 | 88 | 1006.7 |
| 20260506170545 | 18 | 165 | 0.0 | 1.6 | 0.03 | 0.25 | 0.25 | 89 | 1007.0 |
| 20260506165815 | 18 | 167 | 0.0 | 3.2 | 0.03 | 0.25 | 0.25 | 88 | 1007.3 |
| 20260506165316 | 18 | 179 | 0.0 | 4.8 | 0.03 | 0.25 | 0.25 | 89 | 1007.3 |
| 20260506165035 | 18 | 322 | 1.6 | 8.0 | 0.03 | 0.25 | 0.25 | 88 | 1007.3 |
| 20260506164314 | 18 | 230 | 0.0 | 8.0 | 0.03 | 0.25 | 0.25 | 88 | 1007.6 |
| 20260506163810 | 18 | 75 | 0.0 | 3.2 | 0.03 | 0.25 | 0.25 | 89 | 1007.5 |
| 20260506163309 | 18 | 130 | 0.0 | 3.2 | 0.03 | 0.25 | 0.25 | 90 | 1007.3 |
| 20260506162808 | 17 | 175 | 0.0 | 1.6 | 0.03 | 0.25 | 0.25 | 90 | 1007.5 |
| 20260506162307 | 17 | 169 | 0.0 | 1.6 | 0.03 | 0.25 | 0.25 | 90 | 1007.2 |
| 20260506161805 | 17 | 347 | 0.0 | 1.6 | 0.03 | 0.25 | 0.25 | 91 | 1007.3 |
| 20260506161305 | 17 | 281 | 0.0 | 4.8 | 0.03 | 0.25 | 0.25 | 91 | 1007.2 |
| 20260506160759 | 17 | 30 | 0.0 | 4.8 | 0.00 | 0.23 | 0.23 | 90 | 1007.3 |
| 20260506160253 | 17 | 89 | 0.0 | 4.8 | 0.00 | 0.23 | 0.23 | 90 | 1007.4 |
| 20260506155747 | 17 | 165 | 0.0 | 4.8 | 0.00 | 0.23 | 0.23 | 91 | 1007.3 |
| 20260506155241 | 17 | 160 | 0.0 | 1.6 | 0.00 | 0.23 | 0.23 | 91 | 1007.1 |
| 20260506154734 | 17 | 153 | 0.0 | 1.6 | 0.00 | 0.23 | 0.23 | 91 | 1007.3 |
| 20260506154458 | 17 | 170 | 0.0 | 3.2 | 0.03 | 0.23 | 0.23 | 91 | 1007.4 |
| 20260506153928 | 17 | 152 | 0.0 | 1.6 | 0.10 | 0.23 | 0.23 | 91 | 1007.8 |
| 20260506153809 | 17 | 219 | 0.0 | 1.6 | 0.05 | 0.23 | 0.23 | 91 | 1007.6 |
| 20260506152712 | 17 | 161 | 0.0 | 1.6 | 0.13 | 0.23 | 0.23 | 92 | 1007.8 |
| 20260506152205 | 17 | 205 | 0.0 | 1.6 | 0.18 | 0.23 | 0.23 | 91 | 1007.8 |
| 20260506151659 | 17 | 214 | 0.0 | 1.6 | 0.20 | 0.23 | 0.23 | 91 | 1007.9 |
| 20260506151423 | 17 | 303 | 0.0 | 1.6 | 0.20 | 0.23 | 0.23 | 91 | 1008.0 |
| 20260506150647 | 17 | 151 | 0.0 | 1.6 | 0.20 | 0.23 | 0.23 | 91 | 1008.0 |
| 20260506150142 | 16 | 112 | 0.0 | 1.6 | 0.23 | 0.23 | 0.23 | 91 | 1008.0 |
| 20260506145635 | 16 | 112 | 0.0 | 1.6 | 0.23 | 0.23 | 0.23 | 91 | 1008.1 |
| 20260506145129 | 16 | 84 | 0.0 | 1.6 | 0.23 | 0.23 | 0.23 | 90 | 1008.2 |
| 20260506144623 | 16 | 80 | 0.0 | 1.6 | 0.23 | 0.23 | 0.23 | 89 | 1008.2 |
| 20260506144341 | 16 | 142 | 0.0 | 1.6 | 0.20 | 0.20 | 0.20 | 88 | 1008.3 |
| 20260506143610 | 17 | 141 | 0.0 | 1.6 | 0.15 | 0.15 | 0.15 | 87 | 1008.4 |
| 20260506143106 | 17 | 141 | 0.0 | 1.6 | 0.13 | 0.13 | 0.13 | 87 | 1008.5 |
| 20260506142559 | 17 | 194 | 0.0 | 1.6 | 0.10 | 0.10 | 0.10 | 86 | 1008.4 |
| 20260506142053 | 17 | 165 | 0.0 | 1.6 | 0.05 | 0.05 | 0.05 | 84 | 1008.3 |
| 20260506141547 | 17 | 167 | 0.0 | 1.6 | 0.03 | 0.03 | 0.03 | 83 | 1008.3 |
| 20260506141042 | 18 | 117 | 0.0 | 1.6 | 0.03 | 0.03 | 0.03 | 82 | 1008.2 |
| 20260506140752 | 18 | 162 | 0.0 | 4.8 | 0.03 | 0.03 | 0.03 | 82 | 1008.0 |
| 20260506140030 | 18 | 91 | 0.0 | 4.8 | 0.00 | 0.00 | 0.00 | 80 | 1008.1 |
| 20260506135524 | 18 | 148 | 0.0 | 4.8 | 0.00 | 0.00 | 0.00 | 78 | 1008.1 |
| 20260506135016 | 18 | 157 | 0.0 | 4.8 | 0.00 | 0.00 | 0.00 | 76 | 1008.2 |
| 20260506134511 | 18 | 209 | 0.0 | 4.8 | 0.00 | 0.00 | 0.00 | 74 | 1008.1 |
| 20260506134005 | 18 | 162 | 0.0 | 3.2 | 0.00 | 0.00 | 0.00 | 74 | 1008.1 |
| 20260506133726 | 18 | 206 | 0.0 | 3.2 | 0.00 | 0.00 | 0.00 | 74 | 1008.1 |
| 20260506132953 | 18 | 158 | 0.0 | 3.2 | 0.00 | 0.00 | 0.00 | 73 | 1008.0 |
| 20260506132447 | 18 | 155 | 1.6 | 6.4 | 0.00 | 0.00 | 0.00 | 73 | 1007.9 |
| 20260506131941 | 18 | 49 | 0.0 | 6.4 | 0.00 | 0.00 | 0.00 | 73 | 1007.9 |
| 20260506131435 | 18 | 134 | 0.0 | 6.4 | 0.00 | 0.00 | 0.00 | 74 | 1008.0 |
| 20260506130928 | 18 | 45 | 0.0 | 6.4 | 0.00 | 0.00 | 0.00 | 74 | 1007.9 |
| 20260506130423 | 18 | 219 | 0.0 | 3.2 | 0.00 | 0.00 | 0.00 | 75 | 1007.8 |
| 20260506125917 | 18 | 7 | 0.0 | 1.6 | 0.00 | 0.00 | 0.00 | 75 | 1007.9 |
| 20260506125411 | 18 | 160 | 0.0 | 3.2 | 0.00 | 0.00 | 0.00 | 75 | 1007.8 |
| 20260506124905 | 18 | 178 | 0.0 | 4.8 | 0.00 | 0.00 | 0.00 | 75 | 1007.8 |
| 20260506124359 | 18 | 219 | 0.0 | 4.8 | 0.00 | 0.00 | 0.00 | 75 | 1007.8 |
| 20260506124348 | 18 | 235 | 0.0 | 3.2 | 0.00 | 0.00 | 0.00 | 75 | 1007.9 |
| 20260506123347 | 18 | 62 | 0.0 | 3.2 | 0.00 | 0.00 | 0.00 | 74 | 1008.0 |